Simultaneous Nadir Overpasses (SNOs) Predictions

Prediction of SNOs between GOES-16 and METOP-A Satellite Orbit:

Table of predicted SNOs for the next 14.0 days since TLE Epoch: 4/17/2021
Index Date Time (GOES-16) GOES-16 Lat,Lon METOP-A Lat,Lon Distance(km) Time Diff (sec)
1 04/19/2021 01:11:23 -0.04, -75.18 0.05, -74.88 34.11 80
2 04/20/2021 13:30:13 0.04, -75.20 1.00, -79.48 487.90 80
3 04/21/2021 13:12:14 0.04, -75.20 -0.13, -74.51 79.16 80
4 04/23/2021 01:31:13 -0.04, -75.18 -0.93, -79.13 450.97 80
5 04/24/2021 01:07:54 -0.04, -75.18 0.20, -74.16 116.36 80
6 04/25/2021 13:26:44 0.04, -75.21 0.85, -78.75 404.59 80
7 04/26/2021 13:08:44 0.04, -75.21 -0.29, -73.78 163.16 80
8 04/28/2021 01:27:45 -0.04, -75.20 -0.71, -78.42 366.04 80
9 04/29/2021 01:04:24 -0.03, -75.21 0.36, -73.44 201.62 80
10 04/30/2021 13:23:16 0.03, -75.24 0.63, -78.04 319.15 80
